Weather History for KONA - October, 2013

Change the Weather History Date:

Sunday, October 20, 2013

  Actual Average Record
Temperature  
Mean Temperature 40 °F -  
Max Temperature 51 °F 54 °F 80 °F (2003)
Min Temperature 30 °F 37 °F 22 °F (1992)
Degree Days  
Heating Degree Days 24    
Moisture  
Dew Point 36 °F    
Average Humidity 87    
Maximum Humidity 100    
Minimum Humidity 66    
Precipitation  
Precipitation 0.00 in - - ()
Sea Level Pressure  
Sea Level Pressure 29.75 in    
Wind  
Wind Speed 4 mph (SSW)    
Max Wind Speed 18 mph    
Max Gust Speed 26 mph    
Visibility 10 miles    
Events Rain    
Averages and records for this station are not official NWS values.
T = Trace of Precipitation, MM = Missing Value Source: NWS Daily Summary

Daily Weather History Graph

Daily Weather History Graph

Search for Another Location

Airport or City:

Trip Planner

Search our weather history database for the weather conditions in past years. The results will help you decide how hot, cold, wet, or windy it might be!

Date:

Astronomy

Oct. 20, 2013 Rise Set
Actual Time 7:28 AM CDT 6:14 PM CDT
Civil Twilight 6:58 AM CDT 6:43 PM CDT
Nautical Twilight 6:25 AM CDT 7:17 PM CDT
Astronomical Twilight 5:51 AM CDT 7:50 PM CDT
Moon 7:18 PM CDT (10/20) 9:09 AM CDT (10/20)
Length of Visible Light 11h 44m
Length of Day
10h 46m
Full, 97% of the Moon is Illuminated
Oct 20
Full
Oct 26
Last Quarter
Nov 3
New
Nov 9
First Quarter
Nov 17
Full

Hourly Weather History & Observations

Time (CDT) Temp. Windchill Dew Point Humidity Pressure Visibility Wind Dir Wind Speed Gust Speed Precip Events Conditions
12:17 AM 35.6 °F 32.8 °F 32.0 °F 87% 29.81 in 10.0 mi NNW 3.5 mph - N/A   Clear
12:36 AM 35.6 °F 31.7 °F 33.8 °F 93% 29.81 in 10.0 mi NW 4.6 mph - N/A   Clear
12:57 AM 35.6 °F - 33.8 °F 93% 29.81 in 10.0 mi Calm Calm - N/A   Clear
1:17 AM 35.6 °F 32.8 °F 32.0 °F 87% 29.81 in 10.0 mi West 3.5 mph - N/A   Clear
1:37 AM 35.6 °F 32.8 °F 32.0 °F 87% 29.80 in 10.0 mi WNW 3.5 mph - N/A   Clear
1:56 AM 33.8 °F - 32.0 °F 93% 29.81 in 10.0 mi Calm Calm - N/A   Clear
2:17 AM 33.8 °F - 32.0 °F 93% 29.80 in 10.0 mi Calm Calm - N/A   Clear
2:37 AM 33.8 °F - 32.0 °F 93% 29.80 in 10.0 mi Calm Calm - N/A   Clear
2:56 AM 33.8 °F - 32.0 °F 93% 29.81 in 10.0 mi Calm Calm - N/A   Clear
3:17 AM 33.8 °F - 32.0 °F 93% 29.80 in 10.0 mi Calm Calm - N/A   Clear
3:37 AM 32.0 °F - 32.0 °F 100% 29.80 in 2.0 mi Calm Calm - N/A   Clear
3:56 AM 33.8 °F - 32.0 °F 93% 29.80 in 10.0 mi Calm Calm - N/A   Clear
4:17 AM 32.0 °F - 32.0 °F 100% 29.80 in 10.0 mi Calm Calm - N/A   Clear
4:37 AM 32.0 °F - 32.0 °F 100% 29.80 in 10.0 mi Calm Calm - N/A   Clear
4:56 AM 30.2 °F - 30.2 °F 100% 29.80 in 2.5 mi Calm Calm - N/A   Clear
5:17 AM 32.0 °F - 32.0 °F 100% 29.80 in 10.0 mi Calm Calm - N/A   Clear
5:36 AM 32.0 °F - 32.0 °F 100% 29.80 in 10.0 mi Calm Calm - N/A   Scattered Clouds
5:56 AM 32.0 °F - 32.0 °F 100% 29.80 in 10.0 mi Calm Calm - N/A   Mostly Cloudy
6:17 AM 33.8 °F - 33.8 °F 100% 29.80 in 10.0 mi Calm Calm - N/A   Overcast
6:36 AM 33.8 °F - 32.0 °F 93% 29.80 in 10.0 mi Calm Calm - N/A   Overcast
6:56 AM 33.8 °F - 32.0 °F 93% 29.79 in 10.0 mi Calm Calm - N/A   Overcast
7:17 AM 33.8 °F - 32.0 °F 93% 29.80 in 10.0 mi Calm Calm - N/A   Overcast
7:36 AM 33.8 °F 30.8 °F 32.0 °F 93% 29.80 in 10.0 mi SSE 3.5 mph - N/A   Overcast
7:56 AM 33.8 °F 29.6 °F 32.0 °F 93% 29.79 in 10.0 mi SE 4.6 mph - N/A   Overcast
8:17 AM 33.8 °F 30.8 °F 32.0 °F 93% 29.78 in 10.0 mi SE 3.5 mph - N/A Rain Light Rain
8:36 AM 33.8 °F 28.6 °F 32.0 °F 93% 29.78 in 10.0 mi SE 5.8 mph - N/A   Drizzle
8:57 AM 35.6 °F 29.9 °F 33.8 °F 93% 29.77 in 10.0 mi SE 6.9 mph - N/A   Light Drizzle
9:17 AM 35.6 °F 30.7 °F 35.6 °F 100% 29.77 in 7.0 mi SE 5.8 mph - N/A Rain Light Rain
9:36 AM 35.6 °F 29.9 °F 35.6 °F 100% 29.77 in 10.0 mi SE 6.9 mph - N/A   Light Drizzle
9:57 AM 35.6 °F 29.9 °F 35.6 °F 100% 29.75 in 10.0 mi SE 6.9 mph - N/A   Overcast
10:16 AM 35.6 °F 29.2 °F 35.6 °F 100% 29.75 in 10.0 mi ESE 8.1 mph - N/A Rain Rain
10:37 AM 37.4 °F 32.1 °F 35.6 °F 93% 29.75 in 5.0 mi SE 6.9 mph - N/A Rain Light Rain
10:57 AM 37.4 °F 32.1 °F 37.4 °F 100% 29.75 in 5.0 mi SE 6.9 mph - N/A   Drizzle
11:16 AM 37.4 °F 31.4 °F 37.4 °F 100% 29.73 in 7.0 mi ESE 8.1 mph - N/A   Drizzle
11:37 AM 37.4 °F 32.8 °F 37.4 °F 100% 29.73 in 7.0 mi SSE 5.8 mph - N/A Rain Light Rain
11:57 AM 37.4 °F 33.8 °F 35.6 °F 93% 29.72 in 10.0 mi SSE 4.6 mph - N/A   Overcast
12:16 PM 39.2 °F 35.0 °F 37.4 °F 93% 29.72 in 10.0 mi SE 5.8 mph - N/A Rain Light Rain
12:37 PM 41.0 °F 36.4 °F 37.4 °F 87% 29.71 in 10.0 mi SE 6.9 mph - N/A   Light Drizzle
12:57 PM 41.0 °F 36.4 °F 37.4 °F 87% 29.69 in 10.0 mi SE 6.9 mph - N/A   Overcast
1:16 PM 41.0 °F 34.7 °F 37.4 °F 87% 29.67 in 10.0 mi SE 10.4 mph - N/A   Overcast
1:37 PM 41.0 °F 38.0 °F 37.4 °F 87% 29.67 in 10.0 mi SSE 4.6 mph - N/A   Scattered Clouds
1:57 PM 42.8 °F 38.6 °F 37.4 °F 81% 29.66 in 10.0 mi SE 6.9 mph - N/A   Scattered Clouds
2:16 PM 42.8 °F 40.1 °F 37.4 °F 81% 29.66 in 10.0 mi SE 4.6 mph - N/A   Scattered Clouds
2:37 PM 46.4 °F 42.9 °F 41.0 °F 81% 29.66 in 10.0 mi SSE 6.9 mph - N/A   Mostly Cloudy
2:57 PM 48.2 °F - 41.0 °F 76% 29.65 in 10.0 mi SSE 4.6 mph - N/A   Scattered Clouds
3:16 PM 48.2 °F - 39.2 °F 71% 29.64 in 10.0 mi Calm Calm - N/A   Scattered Clouds
3:37 PM 48.2 °F - 37.4 °F 66% 29.65 in 10.0 mi Calm Calm - N/A   Mostly Cloudy
3:56 PM 48.2 °F - 37.4 °F 66% 29.66 in 10.0 mi SW 5.8 mph - N/A   Overcast
4:17 PM 51.8 °F - 41.0 °F 67% 29.65 in 10.0 mi SSW 3.5 mph - N/A   Overcast
4:37 PM 51.8 °F - 41.0 °F 67% 29.64 in 10.0 mi Calm Calm - N/A   Mostly Cloudy
4:56 PM 51.8 °F - 41.0 °F 67% 29.65 in 10.0 mi Calm Calm - N/A   Overcast
5:17 PM 50.0 °F - 41.0 °F 71% 29.64 in 10.0 mi Calm Calm - N/A   Overcast
5:36 PM 50.0 °F - 41.0 °F 71% 29.64 in 10.0 mi SSE 3.5 mph - N/A   Overcast
5:56 PM 50.0 °F - 41.0 °F 71% 29.64 in 10.0 mi SSW 6.9 mph - N/A Rain Rain
6:17 PM 48.2 °F - 42.8 °F 82% 29.65 in 10.0 mi SW 5.8 mph - N/A   Light Drizzle
6:36 PM 48.2 °F - 41.0 °F 76% 29.66 in 10.0 mi West 5.8 mph - N/A Rain Light Rain
6:56 PM 48.2 °F - 42.8 °F 82% 29.67 in 10.0 mi WNW 12.7 mph 19.6 mph N/A   Overcast
7:17 PM 48.2 °F - 44.6 °F 87% 29.68 in 7.0 mi West 12.7 mph 23.0 mph N/A   Overcast
7:36 PM 48.2 °F - 44.6 °F 87% 29.69 in 10.0 mi West 10.4 mph 20.7 mph N/A   Light Drizzle
7:56 PM 48.2 °F - 44.6 °F 87% 29.71 in 10.0 mi WNW 17.3 mph - N/A Rain Light Rain
8:17 PM 46.4 °F 40.4 °F 41.0 °F 81% 29.72 in 10.0 mi WNW 13.8 mph 19.6 mph N/A   Overcast
8:36 PM 46.4 °F 39.8 °F 41.0 °F 81% 29.73 in 10.0 mi WNW 16.1 mph 21.9 mph N/A   Overcast
8:57 PM 44.6 °F 37.8 °F 37.4 °F 76% 29.74 in 10.0 mi WNW 15.0 mph 21.9 mph N/A   Overcast
9:17 PM 42.8 °F 34.5 °F 37.4 °F 81% 29.76 in 10.0 mi WNW 18.4 mph 26.5 mph N/A   Overcast
9:36 PM 41.0 °F 34.7 °F 37.4 °F 87% 29.77 in 10.0 mi WNW 10.4 mph 18.4 mph N/A   Overcast
9:57 PM 41.0 °F 33.1 °F 35.6 °F 81% 29.79 in 10.0 mi WNW 15.0 mph 23.0 mph N/A   Overcast
10:17 PM 41.0 °F 33.1 °F 33.8 °F 76% 29.80 in 10.0 mi WNW 15.0 mph 23.0 mph N/A   Overcast
10:36 PM 41.0 °F 33.5 °F 33.8 °F 76% 29.81 in 10.0 mi WNW 13.8 mph 23.0 mph N/A   Overcast
10:57 PM 39.2 °F 31.6 °F 32.0 °F 75% 29.82 in 10.0 mi NW 12.7 mph 21.9 mph N/A   Overcast
11:17 PM 37.4 °F 28.9 °F 32.0 °F 81% 29.82 in 10.0 mi NW 13.8 mph 19.6 mph N/A   Overcast
11:36 PM 37.4 °F 28.5 °F 32.0 °F 81% 29.83 in 10.0 mi NW 15.0 mph 18.4 mph N/A   Overcast
11:57 PM 37.4 °F 30.3 °F 32.0 °F 81% 29.84 in 10.0 mi WNW 10.4 mph - N/A   Overcast